AIC163 VABB-EGLL

Flight info

Callsign AIC163
Flight time N/A
Altitude 32000
Route RAXET2A BISET P751 LEGEN N563 REXOD L883 UMILA N569 GISKA/N0501F340 N569 TOKRA DCT MEDPO DCT BOSOB DCT ITRUX Y511 PMA Z712 WEJ L677 KAPIT/N0488F360 L677 CVO L617 TANSA UL613 YNN UL611 TUMBO DCT RODON DCT VAKSU DCT ROTAR DCT SAFFA/N0477F380 DCT ELMUR DCT RIPUS DCT DITON DCT HOC DCT LUL DCT RLP DCT ROTSI DCT KOTUN DCT NINAL DCT ABNUR DCT DIMAL DCT ALESO ALESO1H
Aircraft B77W/H-SDE1E2E3FGHIJ2J3J4J5M1RWXY/LB1D1

Departure

Time N/A
Airport Chhatrapati Shivaji Maharaj International Airport (VABB)

Arrival

Time 2026-05-04 15:27
Airport London Heathrow Airport (EGLL)
Time Latitude Longitude Altitude Speed Heading
2026-05-04 15:09 50.66193 1.08295 22242 ft 441 kts 315°
2026-05-04 15:09 50.68429 1.05033 21644 ft 436 kts 315°
2026-05-04 15:10 50.72759 0.98492 20469 ft 426 kts 314°
2026-05-04 15:10 50.74853 0.95203 19881 ft 422 kts 314°
2026-05-04 15:10 50.78947 0.88670 18772 ft 415 kts 314°
2026-05-04 15:11 50.80967 0.85433 18286 ft 410 kts 314°
2026-05-04 15:11 50.82966 0.82235 18158 ft 408 kts 314°
2026-05-04 15:11 50.84938 0.79076 18100 ft 409 kts 314°
2026-05-04 15:11 50.86941 0.75863 18034 ft 410 kts 314°
2026-05-04 15:12 50.88944 0.72649 18011 ft 410 kts 314°
2026-05-04 15:12 50.90949 0.69425 18018 ft 411 kts 314°
2026-05-04 15:12 50.92959 0.66191 18018 ft 412 kts 314°
2026-05-04 15:12 50.94968 0.62955 18008 ft 412 kts 313°
2026-05-04 15:13 50.96967 0.59730 17750 ft 408 kts 313°
2026-05-04 15:13 50.98946 0.56531 17188 ft 405 kts 313°
2026-05-04 15:13 51.00906 0.53361 16623 ft 401 kts 313°
2026-05-04 15:13 51.02852 0.50210 16023 ft 397 kts 313°
2026-05-04 15:14 51.04779 0.47084 15428 ft 394 kts 313°
2026-05-04 15:14 51.06675 0.44006 14910 ft 380 kts 313°
2026-05-04 15:14 51.08491 0.41156 14747 ft 352 kts 315°
2026-05-04 15:14 51.09451 0.39699 14662 ft 339 kts 315°
2026-05-04 15:15 51.11129 0.37174 14516 ft 318 kts 315°
2026-05-04 15:15 51.12675 0.34840 14266 ft 301 kts 315°
2026-05-04 15:15 51.14166 0.32577 13715 ft 292 kts 315°
2026-05-04 15:16 51.17066 0.28143 12110 ft 286 kts 315°
2026-05-04 15:16 51.18496 0.25953 11391 ft 283 kts 315°
2026-05-04 15:16 51.21222 0.21772 10972 ft 266 kts 315°
2026-05-04 15:17 51.22537 0.19754 10386 ft 261 kts 314°
2026-05-04 15:17 51.25155 0.15726 8933 ft 261 kts 315°
2026-05-04 15:17 51.26452 0.13729 8425 ft 265 kts 315°
2026-05-04 15:18 51.27789 0.11670 8208 ft 269 kts 315°
2026-05-04 15:18 51.29162 0.09550 7948 ft 271 kts 315°
2026-05-04 15:18 51.30506 0.07475 7697 ft 267 kts 315°
2026-05-04 15:19 51.33195 0.03522 7121 ft 260 kts 325°
2026-05-04 15:19 51.34748 0.02054 6809 ft 265 kts 330°
2026-05-04 15:19 51.38003 -0.00751 6051 ft 258 kts 331°
2026-05-04 15:20 51.39546 -0.02075 5631 ft 244 kts 331°
2026-05-04 15:20 51.41006 -0.03332 5217 ft 232 kts 331°
2026-05-04 15:20 51.42390 -0.04535 4863 ft 219 kts 331°
2026-05-04 15:20 51.43685 -0.05672 4505 ft 207 kts 331°
2026-05-04 15:21 51.44922 -0.06771 4097 ft 197 kts 331°
2026-05-04 15:21 51.45922 -0.08131 3699 ft 187 kts 300°
2026-05-04 15:21 51.46374 -0.11998 3025 ft 170 kts 279°
2026-05-04 15:22 51.46497 -0.13858 3000 ft 161 kts 276°
2026-05-04 15:22 51.46796 -0.15502 3019 ft 156 kts 303°
2026-05-04 15:22 51.47621 -0.18904 3008 ft 170 kts 276°
2026-05-04 15:23 51.47736 -0.20827 2881 ft 176 kts 277°
2026-05-04 15:23 51.47808 -0.22772 2644 ft 174 kts 274°
2026-05-04 15:23 51.47821 -0.24698 2429 ft 173 kts 272°
2026-05-04 15:23 51.47818 -0.26628 2190 ft 172 kts 272°
2026-05-04 15:24 51.47807 -0.30387 1744 ft 163 kts 272°
2026-05-04 15:24 51.47796 -0.34103 1315 ft 165 kts 271°
2026-05-04 15:25 51.47788 -0.35835 1068 ft 147 kts 272°
2026-05-04 15:25 51.47785 -0.37489 866 ft 151 kts 272°
2026-05-04 15:25 51.47778 -0.39169 648 ft 148 kts 271°
2026-05-04 15:26 51.47766 -0.42470 239 ft 153 kts 273°
2026-05-04 15:26 51.47761 -0.44153 94 ft 142 kts 273°
2026-05-04 15:26 51.47757 -0.46349 96 ft 59 kts 267°
2026-05-04 15:27 51.47707 -0.46700 97 ft 23 kts 245°
2026-05-04 15:27 51.47634 -0.46872 96 ft 4 kts 212°
2026-05-04 15:28 51.47547 -0.46926 96 ft 10 kts 185°
2026-05-04 15:28 51.47498 -0.46869 95 ft 9 kts 107°
2026-05-04 15:28 51.47515 -0.46646 92 ft 15 kts 88°
2026-05-04 15:29 51.47515 -0.46463 92 ft 17 kts 90°
2026-05-04 15:30 51.47507 -0.45570 95 ft 22 kts 91°
2026-05-04 15:30 51.47509 -0.44844 95 ft 22 kts 90°
2026-05-04 15:31 51.47503 -0.44443 94 ft 18 kts 89°
2026-05-04 15:31 51.47504 -0.44246 94 ft 18 kts 89°
2026-05-04 15:32 51.47328 -0.44060 95 ft 14 kts 179°
2026-05-04 15:32 51.47187 -0.44122 94 ft 9 kts 266°
2026-05-04 15:33 51.47187 -0.44193 93 ft 0 kts 270°